Location: Góry Miechowskie
(50.3599°N, 20.1803°E)
Time: 14:42:40
(UTC+00:00)

A-11 Canister half - All Passes

Search period start: 13 September 2024 00:00
Search period end: 23 September 2024 00:00
Orbit: 1515 x 1684 km, 47.2° (Epoch: 13 September)

Date Brightness Start Highest point End Pass type
(mag) Time Alt. Az. Time Alt. Az. Time Alt. Az.
13 Sep - 01:55:36 10° W 02:00:00 14° SW 02:04:28 10° SSW visible
13 Sep - 15:17:02 10° SE 15:19:04 11° ESE 15:21:05 10° ESE daylight
13 Sep - 17:13:25 10° SSW 17:21:43 37° SE 17:29:54 10° E visible
13 Sep - 19:16:24 10° WSW 19:25:36 68° SSE 19:34:45 10° E visible
13 Sep - 21:20:56 10° W 21:30:07 72° S 21:39:21 10° ESE visible
13 Sep - 23:25:40 10° W 23:34:13 44° SSW 23:42:53 10° SE visible
14 Sep - 01:32:16 10° W 01:37:09 16° SW 01:42:06 10° SSW night (unlit)
14 Sep - 16:50:37 10° SSW 16:58:49 35° SE 17:06:54 10° E daylight
14 Sep - 18:53:27 10° WSW 19:02:40 66° SSE 19:11:47 10° E visible
14 Sep - 20:57:57 10° W 21:07:10 72° S 21:16:23 10° ESE visible
14 Sep - 23:02:41 10° W 23:11:18 46° SSW 23:20:01 10° SE visible
15 Sep - 01:09:01 10° W 01:14:18 17° SW 01:19:41 10° SSW night (unlit)
15 Sep - 16:27:50 10° SSW 16:35:55 34° SE 16:43:53 10° E daylight
15 Sep - 18:30:30 10° WSW 18:39:42 65° SSE 18:48:48 10° E visible
15 Sep - 20:34:58 10° W 20:44:12 73° S 20:53:26 10° ESE visible
15 Sep - 22:39:42 10° W 22:48:23 48° SSW 22:57:09 10° SE visible
16 Sep - 00:45:48 10° W 00:51:27 18° SW 00:57:11 10° SSW night (unlit)
16 Sep - 16:05:03 10° SSW 16:13:02 32° SE 16:20:52 10° E daylight
16 Sep - 18:07:33 10° WSW 18:16:45 64° SSE 18:25:50 10° E visible
16 Sep - 20:11:59 10° W 20:21:14 74° S 20:30:28 10° ESE visible
16 Sep - 22:16:42 10° W 22:25:27 49° SSW 22:34:16 10° SE visible
17 Sep - 00:22:37 10° W 00:28:36 19° SW 00:34:39 10° S visible
17 Sep - 15:42:18 10° SSW 15:50:09 31° SE 15:57:50 10° E daylight
17 Sep - 17:44:37 10° WSW 17:53:48 62° SSE 18:02:52 10° E visible
17 Sep - 19:49:00 10° W 19:58:16 74° S 20:07:29 10° ESE visible
17 Sep - 21:53:43 10° W 22:02:32 51° SSW 22:11:24 10° SE visible
17 Sep - 23:59:28 10° W 00:05:44 21° SW 00:12:06 10° S visible
18 Sep - 15:19:33 10° SSW 15:27:15 29° SE 15:34:48 10° E daylight
18 Sep - 17:21:40 10° SW 17:30:52 61° SSE 17:39:53 10° E visible
18 Sep - 19:26:01 10° W 19:35:19 74° S 19:44:31 10° E visible
18 Sep - 21:30:44 10° W 21:39:36 53° SSW 21:48:30 10° SE visible
18 Sep - 23:36:20 10° W 23:42:52 22° SW 23:49:29 10° S visible
19 Sep - 14:56:49 10° S 15:04:22 27° SE 15:11:45 10° E daylight
19 Sep - 16:58:44 10° SW 17:07:55 59° SSE 17:16:55 10° E visible
19 Sep - 19:03:02 10° W 19:12:21 75° S 19:21:33 10° E visible
19 Sep - 21:07:45 10° W 21:16:41 55° SSW 21:25:36 10° SE visible
19 Sep - 23:13:14 10° W 23:20:01 24° SW 23:26:51 10° S visible
20 Sep - 14:34:07 10° S 14:41:28 26° SE 14:48:42 10° E daylight
20 Sep - 16:35:48 10° SW 16:44:58 57° SSE 16:53:57 10° E daylight
20 Sep - 18:40:03 10° W 18:49:22 75° S 18:58:35 10° E visible
20 Sep - 20:44:46 10° W 20:53:45 56° SSW 21:02:42 10° SE visible
20 Sep - 22:50:08 10° W 22:57:09 25° SW 23:04:12 10° S visible
21 Sep - 14:11:25 10° S 14:18:36 25° SE 14:25:37 10° E daylight
21 Sep - 16:12:52 10° SW 16:22:02 56° SSE 16:30:59 10° E daylight
21 Sep - 18:17:03 10° W 18:26:25 75° S 18:35:37 10° E visible
21 Sep - 20:21:47 10° W 20:30:49 58° SSW 20:39:48 10° SE visible
21 Sep - 22:27:04 10° W 22:34:17 27° SW 22:41:31 10° S visible
22 Sep - 13:48:46 10° S 13:55:43 23° SE 14:02:32 10° E daylight
22 Sep - 15:49:57 10° SW 15:59:05 54° SSE 16:08:01 10° E daylight
22 Sep - 17:54:03 10° W 18:03:27 75° S 18:12:39 10° E visible
22 Sep - 19:58:48 10° W 20:07:52 60° SSW 20:16:53 10° SE visible
22 Sep - 22:04:00 10° W 22:11:24 28° SW 22:18:50 10° S visible
